2018-102F (43836 NORAD) Tracking and Keplerian Element Data

This shows tracking and keplerian element data for the satellite.

Feedback or suggestion? Click here.




ElementValue
Catalog43836
Name2018-102F
Epoch Orbit451
Epoch Day6.14226944
Epoch Year2019
RAAN83.3916
Inclination97.626
Eccentricity0.0015851
Argument of Perigee168.8685
Mean Anonmoly226.0263
Mean Motion15.0848398
Decay Rate9.94E-06
L11 43836U 18102F 19006.14226944 .00000994 00000-0 67712-4 0 9993
L22 43836 97.6260 83.3916 0015851 168.8685 226.0263 15.08483980 4515

Live tracking and technical data element details for 2018-102F (NORAD 43836). 2018-102F can be tracked NOW for your location showing map with azimuth and elevation plus other details from your city location.

Track the satellite on the map from your city or location and see movement details for azimuth, elevation, latitude, longitude, range, height, and movement on the map or in text.







IsCatalogInMostPopularTable: catalog: 43836, numindb: 18
Update: records affected: 1



GetName: 43836 2018-102F

Hit Count: updated at: Thu, 17 Jan 2019 14:56:38 GMT